Weather History for KBKW - November, 2012

Change the Weather History Date:

Wednesday, November 7, 2012

  Actual Average Record
Temperature  
Mean Temperature 40 °F 47 °F  
Max Temperature 50 °F 57 °F 80 °F (1916)
Min Temperature 29 °F 37 °F 10 °F (1930)
Degree Days  
Heating Degree Days 25 18  
Month to date heating degree days 189 120  
Since 1 July heating degree days 717 626  
Cooling Degree Days 0 0  
Month to date cooling degree days 0 0  
Year to date cooling degree days 761 556  
Moisture  
Dew Point 27 °F    
Average Humidity 60    
Maximum Humidity 78    
Minimum Humidity 42    
Precipitation  
Precipitation 0.00 in 0.10 in 2.00 in (1912)
Month to date precipitation 0.22 0.69  
Year to date precipitation 40.72 35.93  
Snow  
Snow 0.00 in - - ()
Month to date snowfall 0.0  
Since 1 September snowfall 22.9  
Snow Depth 0.00 in    
Sea Level Pressure  
Sea Level Pressure 29.94 in    
Wind  
Wind Speed 5 mph (NNE)    
Max Wind Speed 14 mph    
Max Gust Speed 18 mph    
Visibility 10 miles    
Events      
T = Trace of Precipitation, MM = Missing Value Source: NWS Daily Summary

Daily Weather History Graph

Daily Weather History Graph

Search for Another Location

Airport or City:

Trip Planner

Search our weather history database for the weather conditions in past years. The results will help you decide how hot, cold, wet, or windy it might be!

Date:

Astronomy

Nov. 07, 2012 Rise Set
Actual Time 6:56 AM EST 5:19 PM EST
Civil Twilight 6:29 AM EST 5:46 PM EST
Nautical Twilight 5:57 AM EST 6:18 PM EST
Astronomical Twilight 5:26 AM EST 6:48 PM EST
Moon No Moon Rise 1:20 PM EST (11/7)
Length of Visible Light 11h 17m
Length of Day
10h 22m
Last Quarter, 43% of the Moon is Illuminated
Nov 7
Last Quarter
Nov 13
New
Nov 20
First Quarter
Nov 28
Full
Dec 6
Last Quarter

Hourly Weather History & Observations

Time (EST) Temp. Windchill Dew Point Humidity Pressure Visibility Wind Dir Wind Speed Gust Speed Precip Events Conditions
12:51 AM 33.1 °F 28.7 °F 26.1 °F 75% 29.94 in 10.0 mi ESE 4.6 mph - N/A   Scattered Clouds
1:51 AM 32.0 °F 28.7 °F 25.0 °F 75% 29.93 in 10.0 mi SE 3.5 mph - N/A   Clear
2:51 AM 30.9 °F 26.2 °F 25.0 °F 79% 29.92 in 10.0 mi SE 4.6 mph - N/A   Clear
3:51 AM 30.9 °F 26.2 °F 25.0 °F 79% 29.91 in 10.0 mi ESE 4.6 mph - N/A   Clear
4:51 AM 30.9 °F 25.2 °F 25.0 °F 79% 29.92 in 10.0 mi ESE 5.8 mph - N/A   Clear
5:51 AM 30.2 °F - 24.8 °F 80% 29.86 in 10.0 mi Calm Calm - N/A   Scattered Clouds
6:51 AM 30.0 °F 26.5 °F 24.1 °F 79% 29.93 in 10.0 mi SE 3.5 mph - N/A   Clear
7:51 AM 30.9 °F - 25.0 °F 79% 29.94 in 10.0 mi Calm Calm - N/A   Partly Cloudy
8:51 AM 34.0 °F - 27.0 °F 75% 29.94 in 10.0 mi Calm Calm - N/A   Partly Cloudy
9:51 AM 37.9 °F - 30.0 °F 73% 29.94 in 10.0 mi Calm Calm - N/A   Partly Cloudy
10:51 AM 43.0 °F - 32.0 °F 65% 29.93 in 10.0 mi Calm Calm - N/A   Clear
11:51 AM 48.0 °F - 30.0 °F 50% 29.90 in 10.0 mi North 5.8 mph - N/A   Clear
12:51 PM 48.9 °F - 28.9 °F 46% 29.88 in 10.0 mi Variable 6.9 mph - N/A   Clear
1:51 PM 48.9 °F - 28.0 °F 44% 29.87 in 10.0 mi North 11.5 mph 17.3 mph N/A   Partly Cloudy
2:51 PM 48.0 °F - 26.1 °F 42% 29.88 in 10.0 mi North 10.4 mph - N/A   Clear
3:51 PM 46.9 °F - 28.0 °F 48% 29.91 in 10.0 mi NNW 9.2 mph - N/A   Scattered Clouds
4:51 PM 45.0 °F 41.8 °F 28.9 °F 53% 29.93 in 10.0 mi North 5.8 mph - N/A   Scattered Clouds
5:51 PM 42.8 °F 37.5 °F 28.4 °F 57% 29.90 in 10.0 mi North 9.2 mph - N/A   Scattered Clouds
6:51 PM 42.1 °F 38.4 °F 28.9 °F 60% 29.99 in 10.0 mi North 5.8 mph - N/A   Clear
7:51 PM 41.0 °F 36.4 °F 28.9 °F 62% 30.00 in 10.0 mi NNW 6.9 mph 18.4 mph N/A   Clear
8:51 PM 39.0 °F 34.8 °F 28.9 °F 67% 30.01 in 10.0 mi North 5.8 mph - N/A   Clear
9:51 PM 37.0 °F 32.4 °F 27.0 °F 67% 30.02 in 10.0 mi NNW 5.8 mph - N/A   Clear
10:51 PM 36.0 °F 31.1 °F 26.1 °F 67% 30.02 in 10.0 mi NW 5.8 mph - N/A   Mostly Cloudy
11:51 PM 35.1 °F 29.3 °F 25.0 °F 67% 30.01 in 10.0 mi NW 6.9 mph - N/A   Clear